COSMOS 2475 (743)

Last updated on Tue Jan 14 2025 00:03:10 GMT+0000 (Coordinated Universal Time)

1 37869U 11064C 25013.55014807 -.00000020 00000+0 00000+0 0 9997 2 37869 64.9972 90.5459 0026428 251.4730 282.3364 2.13101510102698
UTC large
Height (km)
Speed (km/s)
/
Latitude / Longitude
Inclination (degrees)
Orbital Period (minutes)
Azimuth
Elevation
Range (km)
Doppler Factor

Next 0 passes for location: London (51.5072 / 0.1276)

Sorry there are no passes over London.